Vorticity
nan nan nan nan nan nan nan nan nan nan nan nan nan nan nan nan nan nan nan nan nan nan nan nan nan nan nan nan nan nan nan nan nan nan nan nan nan nan nan nan nan nan nan
nan 10 10 10 10 9 9 8 8 8 7 9 9 9 10 11 11 9 8 9 9 9 9 9 8 9 9 9 10 11 11 10 11 11 9 9 9 9 8 7 7 8 nan
nan 9 9 9 10 10 10 10 9 10 9 9 8 9 11 11 9 9 9 9 9 10 10 9 8 8 9 10 14 14 12 11 12 10 8 9 11 12 7 7 8 7 nan
nan 9 9 10 10 11 10 11 10 10 10 10 9 10 11 11 9 9 9 8 9 9 9 9 9 10 11 10 11 11 10 9 10 10 9 9 9 10 10 12 8 7 nan
nan 10 9 10 11 10 11 10 11 10 10 12 11 10 10 8 11 10 9 8 9 8 9 9 9 10 11 12 13 10 8 8 8 7 8 8 10 9 10 9 11 9 nan
nan 9 10 11 10 10 10 11 10 9 11 11 10 9 7 10 13 10 8 8 9 9 8 9 9 10 11 14 11 12 13 11 7 7 8 9 10 9 10 10 11 9 nan
nan 10 10 9 9 10 10 9 9 9 9 9 8 9 8 12 12 8 7 9 10 10 9 9 8 8 9 11 10 11 9 9 12 12 9 12 11 10 9 10 9 10 nan
nan 10 10 9 9 10 9 9 8 9 9 8 9 9 8 13 11 7 7 8 10 10 9 8 10 8 11 10 8 7 8 10 13 14 15 13 12 11 8 11 11 10 nan
nan 10 10 10 10 9 9 8 8 9 10 9 9 10 9 10 11 9 7 7 9 8 8 8 8 8 9 9 9 8 7 7 8 12 13 11 10 10 11 9 8 7 nan
nan 11 10 9 10 9 8 9 8 10 10 10 10 9 10 11 11 7 4 8 8 7 8 8 7 11 10 7 7 8 8 8 7 5 5 7 8 8 6 8 11 9 nan
nan 11 10 10 9 10 9 9 9 9 11 11 10 10 10 11 12 8 4 6 8 8 8 8 11 13 8 6 7 8 11 9 7 6 6 7 8 7 9 10 8 10 nan
nan 9 10 10 9 12 10 9 10 9 10 10 9 8 10 11 12 14 6 6 9 8 8 8 14 13 9 8 6 8 11 8 7 8 8 9 9 9 10 11 8 6 nan
nan 10 9 10 9 10 10 7 7 8 9 10 9 9 10 10 12 15 10 8 6 5 9 11 14 10 8 9 11 10 5 6 9 9 8 9 9 11 12 12 10 9 nan
nan 9 9 10 10 8 8 9 9 10 9 9 9 10 10 10 9 9 11 9 9 9 9 10 8 9 8 10 13 8 7 9 9 9 9 9 12 13 10 10 10 10 nan
nan 10 9 10 11 8 9 10 11 10 11 9 9 10 10 10 15 13 10 11 13 15 8 8 9 9 10 9 7 9 11 10 10 9 10 10 10 10 10 10 9 9 nan
nan 9 10 11 10 9 10 5 5 19 16 8 13 11 4 16 23 14 9 9 12 13 6 8 8 9 9 9 9 9 10 10 10 10 10 10 10 10 10 9 10 10 nan
nan 9 10 11 11 11 10 10 4 7 15 14 10 9 11 16 12 11 12 13 9 -0 6 9 9 10 10 9 10 9 10 10 10 10 10 10 9 10 10 9 9 9 nan
nan 9 10 11 11 11 10 9 10 9 10 10 12 15 13 13 13 11 11 4 6 8 12 9 10 9 10 10 10 9 10 10 10 10 10 10 10 10 10 10 10 10 nan
nan 11 11 11 12 12 11 11 11 9 9 10 10 12 15 15 12 16 8 0 8 11 10 9 10 10 10 10 10 11 11 10 10 10 10 11 11 11 9 10 10 10 nan
nan 12 12 12 12 12 11 10 10 11 11 10 11 11 12 9 11 8 5 9 9 10 11 11 11 10 11 11 11 11 10 10 11 11 11 12 12 11 11 11 10 11 nan
nan 15 12 12 13 13 12 11 10 11 10 10 11 14 12 3 10 10 9 9 9 9 10 10 11 11 11 11 11 11 10 10 12 11 12 11 11 11 11 12 12 11 nan
nan 12 11 9 13 14 13 11 12 9 9 11 12 20 13 -0 7 10 11 11 12 11 12 11 10 11 10 11 11 11 10 10 11 11 11 10 11 11 11 10 11 11 nan
nan 12 5 7 11 9 10 11 11 10 11 10 10 13 9 9 10 12 11 11 11 12 11 12 11 9 10 11 11 11 12 11 11 11 10 11 11 11 11 11 11 11 nan
nan 11 8 6 5 9 10 12 13 11 10 12 11 10 8 11 11 9 8 11 14 13 11 12 13 11 8 8 9 9 10 12 11 14 11 9 13 13 12 12 15 13 nan
nan 10 9 9 9 7 7 10 11 14 12 8 7 9 12 11 11 10 11 10 12 12 12 11 12 13 12 10 7 7 10 15 10 9 14 13 12 10 11 13 11 14 nan
nan nan nan nan nan nan nan nan nan nan nan nan nan nan nan nan nan nan nan nan nan nan nan nan nan nan nan nan nan nan nan nan nan nan nan nan nan nan nan nan nan nan nan
CAPE
870 701 940 886 998 1026 1001 968 904 911 892 1488 1655 1690 1569 1728 1172 344 5 7 0 0 0 0 0 0 0 0 51 320 428 93 18 0 1 78 10 0 0 0 0 0 0
957 617 692 785 1036 1035 1096 1020 973 1031 982 1375 1392 924 1337 1306 218 7 1 0 0 0 0 0 0 0 0 0 0 0 68 20 7 0 0 17 44 12 0 0 0 0 0
1250 1002 860 838 1037 935 966 1041 1059 1008 1002 1182 1056 833 1223 554 10 0 0 0 0 0 0 0 0 0 0 0 0 0 0 0 0 0 0 0 0 20 17 7 11 25 0
1156 1042 1123 1055 1006 984 1049 1039 1022 1088 1131 1399 1172 928 556 9 0 0 0 0 0 0 0 0 0 0 0 0 0 0 0 0 0 0 0 0 0 0 9 22 24 3 0
1288 1169 1239 1126 996 1068 1034 990 1100 1154 1410 1305 1144 348 143 0 0 0 0 0 0 0 0 0 0 0 0 0 0 0 0 0 0 0 0 0 0 0 0 0 5 0 0
1379 1274 1340 1214 1112 1032 1019 1134 1220 1264 1215 850 676 153 1 0 0 0 0 0 0 0 0 0 0 0 0 0 0 0 0 0 0 0 0 0 0 0 0 0 0 0 0
1486 1428 1300 1111 1045 1029 1123 1314 1185 1162 1016 951 208 0 6 0 0 0 0 0 0 0 0 0 0 0 0 0 0 0 0 0 0 0 0 0 0 0 0 0 0 0 0
1464 1466 1221 1078 1046 1086 1247 1151 1254 1382 780 312 50 19 13 0 0 0 0 0 0 0 0 0 0 0 0 0 0 0 0 0 0 0 0 0 0 0 0 0 0 0 0
1527 1477 1237 1006 1011 1175 1134 1153 1046 1229 771 739 89 85 7 0 0 0 0 0 0 0 0 0 0 0 0 0 0 0 0 0 0 0 0 0 0 0 0 0 0 0 0
1732 1634 1250 990 1026 1055 1142 1262 901 558 875 883 481 82 1 0 0 0 0 0 0 0 0 0 0 0 0 0 0 0 0 0 0 0 0 0 0 0 0 0 0 0 0
1653 1699 1332 1019 1107 992 1137 1244 1010 795 846 538 349 135 8 0 0 0 0 0 0 0 0 0 0 0 0 0 0 0 0 0 0 0 0 0 0 0 0 0 0 0 0
1628 1569 1433 1361 921 887 1070 1094 950 838 588 288 245 66 12 5 0 0 0 0 0 0 0 0 0 0 0 0 0 0 0 0 0 0 0 0 0 0 0 0 0 0 0
1304 1312 1331 1166 1210 1368 1231 1097 748 677 673 759 384 272 36 1 0 0 0 0 0 0 0 0 0 0 0 0 0 0 0 0 0 0 0 0 0 0 0 0 0 0 0
1219 1097 876 1174 943 1074 1009 919 525 396 701 1091 763 697 259 1 0 0 0 0 0 0 0 0 0 0 0 0 0 0 0 0 0 0 0 0 0 0 0 0 0 0 0
1238 1121 889 788 577 960 999 716 567 654 305 704 1018 910 457 112 8 0 0 0 0 0 0 0 0 0 0 0 0 0 0 0 0 0 0 0 0 0 0 0 0 0 0
1299 1098 1047 1057 876 945 949 807 89 32 74 64 175 548 617 63 0 0 0 0 0 0 0 0 0 0 0 0 0 0 0 0 0 0 0 0 0 0 0 0 0 0 0
1654 1581 1300 1009 1336 1270 1231 1034 924 0 0 0 0 0 2 7 0 0 0 0 0 0 0 0 0 0 0 0 0 0 0 0 0 0 0 0 0 0 0 0 0 0 0
1728 1466 1950 1583 1653 1557 1487 1310 1282 1179 367 232 0 0 0 0 0 0 0 0 0 0 0 0 0 0 0 0 0 0 0 0 0 0 0 0 0 0 0 0 0 0 0
2037 1981 1876 1963 1922 1637 1727 1612 1492 1414 1489 1210 715 0 0 0 0 0 0 0 0 0 0 0 0 0 0 0 0 0 0 0 0 0 0 0 0 0 0 0 0 0 0
2304 1917 1899 2073 1967 1739 1736 1858 1785 1773 1736 1602 1204 461 32 0 0 0 0 0 0 0 0 0 0 0 0 0 0 0 0 0 0 0 0 0 0 0 0 0 0 0 0
2663 2465 1885 2207 2213 2180 2140 2054 2068 1973 1838 1701 1506 949 15 36 148 24 3 0 0 0 0 0 0 0 0 0 0 0 0 0 0 0 0 0 0 0 0 0 0 0 0
2855 2566 1820 1775 1851 1775 2004 1976 1771 1883 1979 1821 1617 1345 0 95 625 721 524 307 40 0 1 0 0 0 0 0 0 0 0 0 0 0 0 0 0 0 0 0 0 0 0
1924 2406 1888 1108 993 819 521 1059 1831 1703 1745 1938 1896 1609 57 73 427 570 534 819 507 235 13 0 0 0 0 0 0 0 0 0 0 0 0 0 0 0 0 0 0 0 0
62 1006 1210 436 96 42 7 0 412 1189 1626 1680 1624 1578 1651 311 314 486 817 688 872 678 377 44 0 0 0 0 0 0 0 0 0 0 0 0 0 0 0 0 0 0 0
0 25 235 435 374 98 0 0 116 385 991 1309 1407 903 968 1207 987 691 570 694 961 969 753 464 77 0 0 0 0 0 0 0 0 0 0 0 0 0 0 0 0 0 0
0 0 5 100 125 207 221 76 143 366 453 476 589 496 809 968 1062 1051 807 859 852 929 811 615 396 57 0 0 0 0 0 0 0 0 0 0 0 0 0 0 0 0 0